Regional Weather Roundup
Issued by NWS

Home | Current Version | Previous Version | Text Only | Print | Product List | Glossary On
Versions: 1 2 3 4 5 6 7 8 9 10 11 12 13 14 15 16 17 18 19 20 21 22 23 24 25 26 27 28 29 30 31 32 33 34 35 36 37 38 39 40 41 42 43 44 45 46 47 48 49 50
000
ASUS43 KBIS 281520
RWRND

NORTH DAKOTA REGIONAL WEATHER ROUNDUP
NATIONAL WEATHER SERVICE BISMARCK ND
900 AM CST SUN DEC 28 2014

NOTE: "FAIR" INDICATES FEW OR NO CLOUDS BELOW 12,000 FEET WITH NO
SIGNIFICANT WEATHER AND/OR OBSTRUCTIONS TO VISIBILITY.


NDZ001>003-009>011-017-281600-
NORTHWEST NORTH DAKOTA

CITY           SKY/WX    TMP DP  RH WIND       PRES   REMARKS
WILLISTON      CLOUDY    12   6  77 NE9       30.10R WCI   0
MINOT          CLOUDY    -6 -11  79 NW7       30.19R WCI -20
MINOT AFB      CLOUDY    -8 -11  84 N6        30.20R WCI -21
$$

NDZ018>021-031>035-040>046-281600-
SOUTHWEST NORTH DAKOTA

CITY           SKY/WX    TMP DP  RH WIND       PRES   REMARKS
BISMARCK       CLOUDY    10   7  87 E7        30.15R WCI  -1
DICKINSON      CLOUDY    18  14  84 E13       29.98R WCI   5
GARRISON         N/A      5   1  83 NE8       30.13R WCI  -8
HETTINGER ARPT CLOUDY    12   8  84 E7        29.98R WCI   1
$$

NDZ004>008-012>016-024-026-027-054-281600-
NORTHEAST NORTH DAKOTA

CITY           SKY/WX    TMP DP  RH WIND       PRES   REMARKS
GRAND FORKS    PTCLDY    -9 -14  78 N8        30.30R WCI -25
GRND FRKS AFB  PTCLDY    -8 -13  77 N6        30.30R WCI -21
DEVILS LAKE    CLOUDY    -4  -9  77 NE7       30.22R WCI -18
$$

NDZ022-023-025-028>030-036>039-047>053-281600-
SOUTHEAST NORTH DAKOTA

CITY           SKY/WX    TMP DP  RH WIND       PRES   REMARKS
FARGO          CLEAR     -1  -8  72 N16       30.26R WCI -21
JAMESTOWN      CLOUDY     4  -1  80 NE10      30.19R WCI -11
$$



USA.gov is the U.S. government's official web portal to all federal, state and local government web resources and services.